Regional Weather Roundup
Issued by NWS Jackson, KY

Home | Current Version | Previous Version | Graphics & Text | Print | Product List | Glossary On
Versions: 1 2 3 4 5 6 7 8 9 10 11 12 13 14 15 16 17 18 19 20 21 22 23 24 25 26 27
000
ASUS43 KJKL 251210
RWRJKL

EAST KENTUCKY HOURLY WEATHER ROUNDUP
NATIONAL WEATHER SERVICE JACKSON KY
800 AM EDT TUE APR 25 2017

NOTE: "FAIR" INDICATES FEW OR NO CLOUDS BELOW 12,000 FEET WITH
NO SIGNIFICANT WEATHER AND/OR OBSTRUCTIONS TO VISIBILITY.

* THESE REPORTS ARE NOT UNDER NWS QUALITY CONTROL AND MAY NOT
  REPORT WEATHER SUCH AS PRECIPITATION AND FOG.

KYZ079-080-083-085-087-088-110-112-115-119-120-251300
...EASTERN KENTUCKY...

CITY           SKY/WX    TMP DP  RH WIND       PRES   REMARKS
JACKSON        CLOUDY    53  52  96 VRB3      29.79R
6HR MIN TEMP:  52; 6HR MAX TEMP:  53;

LONDON         CLOUDY    52  50  93 N5        29.79R FOG
6HR MIN TEMP:  51; 6HR MAX TEMP:  54;

SOMERSET*      MOSUNNY   54  54 100 CALM      29.80R
MONTICELLO*    CLOUDY    53  52  96 MISG      29.81R
6HR MIN TEMP:  49; 6HR MAX TEMP:  57;

WILLIAMSBURG*  SUNNY     50  50 100 CALM      29.78R
MIDDLESBORO*   CLOUDY    53  53 100 CALM      29.79R
6HR MIN TEMP:  51; 6HR MAX TEMP:  54;

BIG SANDY APT* CLOUDY    53  53 100 CALM      29.81R
$$

KYZ035-036-041-042-044-050-067-078-099-251300
...CENTRAL KENTUCKY...

CITY           SKY/WX    TMP DP  RH WIND       PRES   REMARKS
MT STERLING*   SUNNY     50  50 100 CALM      29.82R
FLEMING/MASON* SUNNY     52  50  93 E7        29.82R
DANVILLE*      SUNNY     50  50 100 CALM      29.80S
LEXINGTON      PTSUNNY   55  51  86 E5        29.80R
6HR MIN TEMP:  51; 6HR MAX TEMP:  56;

FRANKFORT      SUNNY     55  51  86 NE5       29.79R
6HR MIN TEMP:  50; 6HR MAX TEMP:  57;

LOUISVILLE     MOSUNNY   58  54  86 CALM      29.79R
6HR MIN TEMP:  56; 6HR MAX TEMP:  62;

LEBANON*         N/A     54  54 100 CALM      29.80R
GLASGOW*       MOSUNNY  N/A N/A N/A CALM      29.79R
BOWLING GREEN  SUNNY     55  54  96 CALM      29.79R
6HR MIN TEMP:  50; 6HR MAX TEMP:  57;

$$

KYZ091>093-OHZ055-061-077-WVZ005-015-034-035-042-251300
...SOUTHERN OHIO/WEST VIRGINIA...

CITY           SKY/WX    TMP DP  RH WIND       PRES   REMARKS
COVINGTON      MOSUNNY   55  51  86 E7        29.81R
COLUMBUS       CLOUDY    56  48  74 E13       29.83S
DAYTON         MOSUNNY   52  48  86 E6        29.83S
WILMINGTON     CLOUDY    53  50  89 E9        29.82R
HUNTINGTON     CLOUDY    53  48  83 NE7       29.82R
CHARLESTON     LGT RAIN  52  50  93 CALM      29.82R
PINEVILLE*     CLOUDY    54  53  97 MISG      29.84R
BECKLEY        CLOUDY    54  50  86 E5        29.81R
BLUEFIELD      LGT RAIN  49  48  97 CALM      29.81R FOG
LOGAN CO APT*  CLOUDY    54  54 100 NE5       29.79
$$

VAZ002-007-008-TNZ017-027-036-066-071-251300
...SOUTHWEST VIRGINIA/EAST TENNESSEE...

CITY           SKY/WX    TMP DP  RH WIND       PRES   REMARKS
WISE*          CLOUDY    52  52 100 N5        29.81S
JONESVILLE*    CLOUDY    52  52 100 CALM      29.79S
ABINGDON*      CLOUDY    56  54  93 E7        29.77R
BRISTOL        CLOUDY    54  51  90 CALM      29.78R
MORRISTOWN*    CLOUDY    54  52  94 SW3       29.76S
SEVIERVILLE*   CLOUDY    54  52  94 CALM      29.77S
KNOXVILLE      PTSUNNY   54  51  90 CALM      29.77R
LAFOLLETTE*    CLOUDY    54  54 100 CALM      29.80R
OAK RIDGE      SUNNY     53  51  93 CALM      29.79R
CROSSVILLE     FOG       52  52 100 W7        29.80R VSB<1/4
NASHVILLE      MOSUNNY   51  50  96 CALM      29.81R
$$

...KEY TO REMARKS...
VSB - VISIBILITY IN MILES
WCI - WIND CHILL INDEX
HX  - HEAT INDEX

$$




USA.gov is the U.S. government's official web portal to all federal, state and local government web resources and services.